Location: Augirein
(42.9320°N, 0.9181°E)
Time: 19:47:48
(UTC+00:00)

Meteor 1-29 - Pass Details

Date: 20 June 2021
Orbit: 434 x 457 km, 97.7° (Epoch: 01 August)

Event Time Altitude Azimuth Distance (km) Brightness Sun altitude
Rises 02:53:37 0° 0° (N) 2,479 7.5 -12.3°
Reaches altitude 10° 02:55:53 10° 347° (NNW) 1,597 6.2 -12.0°
Maximum altitude 02:58:44 25° 290° (WNW) 953 4.3 -11.7°
Enters shadow 03:00:34 16° 246° (WSW) 1,253 4.6 -11.5°
